TimeMST,TemperatureF,Dew PointF,Humidity,Sea Level PressureIn,VisibilityMPH,Wind Direction,Wind SpeedMPH,Gust SpeedMPH,PrecipitationIn,Events,Conditions,WindDirDegrees,DateUTC
12:53 AM,39.0,32.0,76,30.01,10.0,North,4.6,-,0.00,Rain,Light Rain,10,2012-11-25 07:53:00
1:53 AM,39.0,34.0,82,29.99,10.0,Calm,Calm,-,0.02,Rain,Light Rain,0,2012-11-25 08:53:00
2:53 AM,37.9,35.1,89,30.00,10.0,West,4.6,-,0.01,Rain,Light Rain,270,2012-11-25 09:53:00
3:53 AM,37.0,36.0,96,30.01,10.0,SSW,4.6,-,0.05,Rain,Light Rain,200,2012-11-25 10:53:00
4:51 AM,37.4,35.6,93,30.01,9.0,SSW,6.9,-,0.05,Rain,Light Rain,200,2012-11-25 11:51:00
5:16 AM,37.4,35.6,93,30.02,9.0,South,6.9,-,0.02,Rain,Light Rain,190,2012-11-25 12:16:00
5:44 AM,37.4,35.6,93,30.02,6.0,SSW,9.2,-,0.03,Rain,Light Rain,200,2012-11-25 12:44:00
5:53 AM,37.0,36.0,96,30.04,7.0,SSW,10.4,-,0.03,Rain,Light Rain,210,2012-11-25 12:53:00
6:25 AM,37.4,35.6,93,30.02,1.8,SSW,10.4,-,0.00,Rain,Light Rain,210,2012-11-25 13:25:00
6:37 AM,37.4,35.6,93,30.02,0.5,SW,10.4,-,0.00,Fog,Fog,230,2012-11-25 13:37:00
6:53 AM,37.0,36.0,96,30.05,0.2,SW,13.8,-,0.00,Fog,Fog,230,2012-11-25 13:53:00
7:53 AM,37.0,36.0,96,30.06,0.2,WSW,13.8,-,N/A,Fog,Fog,240,2012-11-25 14:53:00
8:53 AM,37.0,37.0,100,30.07,0.2,SW,17.3,-,N/A,Fog,Fog,230,2012-11-25 15:53:00
9:53 AM,37.0,36.0,96,30.10,0.2,SW,17.3,-,N/A,Fog,Fog,230,2012-11-25 16:53:00
10:44 AM,35.6,35.6,100,30.08,1.0,WSW,20.7,27.6,N/A,,Mist,240,2012-11-25 17:44:00
10:53 AM,36.0,35.1,97,30.12,2.0,WSW,23.0,29.9,N/A,,Overcast,250,2012-11-25 17:53:00
11:01 AM,35.6,35.6,100,30.09,10.0,WSW,18.4,28.8,N/A,,Overcast,250,2012-11-25 18:01:00
11:30 AM,35.6,35.6,100,30.08,10.0,WSW,21.9,26.5,N/A,,Overcast,240,2012-11-25 18:30:00
11:53 AM,37.0,36.0,96,30.11,10.0,WSW,19.6,25.3,N/A,,Overcast,240,2012-11-25 18:53:00
12:25 PM,37.4,35.6,93,30.07,10.0,WSW,19.6,26.5,N/A,,Overcast,240,2012-11-25 19:25:00
12:53 PM,37.9,36.0,93,30.11,10.0,WSW,18.4,25.3,N/A,,Overcast,250,2012-11-25 19:53:00
1:24 PM,42.8,35.6,76,30.08,10.0,WSW,18.4,26.5,N/A,,Overcast,240,2012-11-25 20:24:00
1:32 PM,41.0,35.6,81,30.09,10.0,WSW,20.7,-,N/A,,Overcast,240,2012-11-25 20:32:00
1:53 PM,41.0,34.0,76,30.10,10.0,WSW,20.7,28.8,N/A,,Mostly Cloudy,250,2012-11-25 20:53:00
2:53 PM,39.9,30.0,68,30.10,10.0,WSW,20.7,28.8,N/A,,Scattered Clouds,250,2012-11-25 21:53:00
3:53 PM,39.9,28.9,65,30.11,10.0,WSW,20.7,26.5,N/A,,Clear,240,2012-11-25 22:53:00
4:53 PM,37.0,28.9,73,30.13,10.0,WSW,20.7,25.3,N/A,,Clear,240,2012-11-25 23:53:00
5:53 PM,35.1,28.0,76,30.15,10.0,SW,15.0,-,N/A,,Clear,220,2012-11-26 00:53:00
6:53 PM,34.0,27.0,75,30.17,10.0,SW,11.5,-,N/A,,Clear,220,2012-11-26 01:53:00
7:53 PM,32.0,26.1,79,30.19,10.0,SW,13.8,-,N/A,,Clear,220,2012-11-26 02:53:00
8:53 PM,30.9,26.1,82,30.22,10.0,SW,11.5,-,N/A,,Clear,230,2012-11-26 03:53:00
9:53 PM,30.9,25.0,79,30.24,10.0,SW,9.2,-,N/A,,Clear,220,2012-11-26 04:53:00
10:53 PM,28.9,25.0,85,30.26,10.0,South,6.9,-,N/A,,Clear,180,2012-11-26 05:53:00
11:53 PM,28.0,25.0,88,30.27,10.0,South,6.9,-,N/A,,Clear,180,2012-11-26 06:53:00